CW4114 Weather Reports


time (UTC)temp
C
wind
direction
speed
KPH
gust
KPH
rain 1hr
cm
rain 24hr
cm
rain mn
cm
humidity
%
barometer
mb
20260505184216 11 275 9.7 24.1 0.00 0.43 0.00 52 1003.7
20260505183717 9 307 6.4 24.1 0.00 0.43 0.00 62 1003.4
20260505183217 8 0 6.4 16.1 0.00 0.43 0.00 65 1003.5
20260505182716 7 19 6.4 14.5 0.00 0.43 0.00 69 1003.4
20260505182218 7 351 3.2 14.5 0.00 0.43 0.00 67 1003.8
20260505181714 7 25 6.4 17.7 0.00 0.43 0.00 68 1003.5
20260505181214 7 358 4.8 17.7 0.00 0.43 0.00 68 1003.8
20260505180715 7 24 4.8 32.2 0.00 0.43 0.00 68 1003.7
20260505180219 7 21 11.3 32.2 0.00 0.43 0.00 69 1003.4
20260505175748 7 14 9.7 22.5 0.00 0.43 0.00 69 1003.5
20260505175020 7 341 9.7 22.5 0.00 0.43 0.00 71 1003.7
20260505174746 7 14 4.8 17.7 0.00 0.43 0.00 71 1003.4
20260505174019 7 351 8.0 16.1 0.00 0.43 0.00 72 1003.5
20260505173519 6 0 4.8 16.1 0.00 0.43 0.00 71 1003.7
20260505173016 7 340 4.8 16.1 0.00 0.43 0.00 73 1003.7
20260505172518 7 333 6.4 17.7 0.00 0.43 0.00 71 1003.7
20260505172015 7 355 6.4 17.7 0.00 0.43 0.00 74 1003.5
20260505171513 6 288 6.4 16.1 0.00 0.43 0.00 72 1003.8
20260505171012 6 42 6.4 16.1 0.00 0.43 0.00 71 1003.7
20260505170513 6 358 6.4 16.1 0.00 0.43 0.00 72 1003.7
20260505170015 6 357 8.0 17.7 0.00 0.43 0.00 73 1003.5
20260505165511 6 69 6.4 19.3 0.00 0.43 0.00 72 1003.7
20260505165009 6 334 8.0 19.3 0.00 0.43 0.00 72 1003.7
20260505164511 6 314 6.4 24.1 0.00 0.43 0.00 72 1003.8
20260505164010 6 355 6.4 24.1 0.00 0.43 0.00 71 1003.5
20260505163507 6 250 9.7 19.3 0.00 0.43 0.00 70 1003.4
20260505163009 7 329 9.7 20.9 0.00 0.43 0.00 68 1003.4
20260505162505 7 327 11.3 20.9 0.00 0.43 0.00 63 1003.5
20260505162247 8 302 6.4 24.1 0.00 0.43 0.00 60 1003.4
20260505161505 9 357 9.7 24.1 0.00 0.43 0.00 55 1003.2
20260505161006 9 347 12.9 24.1 0.00 0.43 0.00 58 1003.3
20260505160732 8 343 8.0 24.1 0.00 0.43 0.00 56 1003.5
20260505153002 8 257 9.7 27.4 0.00 0.43 0.00 58 1003.3
20260505152502 8 286 12.9 27.4 0.00 0.43 0.00 58 1003.3
20260505152004 8 290 11.3 24.1 0.00 0.43 0.00 65 1003.4
20260505151502 8 265 12.9 25.7 0.00 0.43 0.00 66 1003.4
20260505151003 8 330 8.0 25.7 0.00 0.43 0.00 67 1003.2
20260505150502 8 344 11.3 22.5 0.00 0.43 0.00 68 1003.2
20260505150223 7 285 12.9 22.5 0.00 0.43 0.00 70 1003.2
20260505140610 6 27 3.2 14.5 0.00 0.43 0.00 79 1002.2
20260505124943 6 300 9.7 19.3 0.00 0.43 0.00 70 1001.3
20260505124444 6 327 9.7 19.3 0.00 0.43 0.00 70 1001.3
20260505123943 6 302 4.8 16.1 0.00 0.43 0.00 72 1001.5
20260505123443 6 7 8.0 16.1 0.00 0.43 0.00 73 1001.3
20260505122943 6 306 4.8 16.1 0.00 0.43 0.00 73 1001.4
20260505122439 6 324 4.8 11.3 0.00 0.43 0.00 75 1001.3
20260505122215 6 296 6.4 14.5 0.00 0.43 0.00 75 1001.2
20260505121433 5 293 1.6 14.5 0.00 0.43 0.00 75 1001.2
20260505120935 5 313 8.0 14.5 0.00 0.43 0.00 76 1001.1
20260505120436 5 257 6.4 11.3 0.00 0.43 0.00 76 1001.1
20260505115936 5 275 4.8 16.1 0.00 0.43 0.00 76 1001.2
20260505115433 5 344 3.2 16.1 0.00 0.43 0.00 76 1001.1
20260505114946 5 14 4.8 14.5 0.00 0.43 0.00 76 1000.9
20260505113932 5 298 8.0 14.5 0.00 0.43 0.00 77 1000.9
20260505113432 5 327 6.4 14.5 0.00 0.43 0.00 78 1000.8
20260505112932 5 314 8.0 16.1 0.00 0.43 0.00 79 1000.8
20260505112433 5 316 6.4 16.1 0.00 0.43 0.00 80 1000.8
20260505111937 5 303 6.4 14.5 0.00 0.43 0.00 80 1000.7
20260505111432 5 286 8.0 11.3 0.00 0.43 0.00 81 1000.5
20260505111202 4 278 6.4 11.3 0.00 0.43 0.00 82 1000.4
20260505110432 4 281 6.4 9.7 0.00 0.43 0.00 82 1000.3
20260505101933 4 272 6.4 11.3 0.00 0.43 0.00 82 999.5
20260505101433 4 285 8.0 11.3 0.00 0.43 0.00 81 999.5
20260505100933 4 258 6.4 11.3 0.00 0.43 0.00 81 999.5
20260505100433 5 288 6.4 11.3 0.00 0.43 0.00 81 999.4
20260505095933 5 309 4.8 11.3 0.00 0.43 0.00 80 999.3
20260505095706 5 293 6.4 11.3 0.00 0.43 0.00 80 999.3
20260505094933 5 316 6.4 8.0 0.00 0.43 0.00 79 999.1
20260505094432 5 290 6.4 8.0 0.00 0.43 0.00 79 999.2
20260505093932 5 337 4.8 9.7 0.00 0.43 0.00 79 999.1
20260505093710 5 303 4.8 11.3 0.00 0.43 0.00 78 999.1
20260505092933 5 341 4.8 11.3 0.00 0.43 0.00 79 999.1
20260505092433 5 285 4.8 16.1 0.00 0.43 0.00 78 998.9
20260505091933 5 234 4.8 16.1 0.00 0.43 0.00 78 999.0
20260505091432 5 298 3.2 16.1 0.00 0.43 0.00 78 998.8
20260505090933 5 305 6.4 24.1 0.00 0.43 0.00 77 998.7
20260505090700 5 314 6.4 24.1 0.00 0.43 0.00 77 998.7
20260505085933 6 286 8.0 17.7 0.00 0.43 0.00 77 998.6
20260505085433 6 326 8.0 14.5 0.00 0.43 0.00 76 998.6
20260505084933 6 271 6.4 19.3 0.00 0.43 0.00 76 998.6
20260505084433 6 300 8.0 19.3 0.00 0.43 0.00 77 998.5
20260505084200 6 279 4.8 11.3 0.00 0.43 0.00 77 998.5
20260505083432 6 285 8.0 14.5 0.00 0.43 0.00 76 998.5
20260505082933 6 271 3.2 16.1 0.00 0.43 0.00 76 998.5
20260505082432 6 306 4.8 17.7 0.00 0.43 0.00 77 998.6
20260505081932 6 309 8.0 17.7 0.00 0.43 0.00 78 998.5
20260505081433 6 295 8.0 14.5 0.00 0.43 0.00 78 998.4
20260505080933 6 279 4.8 11.3 0.00 0.43 0.00 77 998.4
20260505080430 6 298 4.8 11.3 0.00 0.46 0.00 77 998.4
20260505075933 7 299 6.4 14.5 0.00 0.46 0.00 76 998.3
20260505075425 7 331 6.4 17.7 0.00 0.46 0.00 76 998.2
20260505075148 7 295 6.4 24.1 0.00 0.46 0.00 76 998.2
20260505074422 7 290 6.4 24.1 0.00 0.46 0.00 77 998.2
20260505073921 7 306 4.8 11.3 0.00 0.46 0.00 78 998.2
20260505073422 7 268 6.4 11.3 0.00 0.46 0.00 78 998.1
20260505072922 7 326 6.4 11.3 0.00 0.46 0.00 78 998.1
20260505072424 7 269 6.4 11.3 0.00 0.46 0.00 78 998.1
20260505071921 7 290 3.2 11.3 0.00 0.46 0.00 78 998.2
20260505071421 7 292 4.8 14.5 0.00 0.46 0.00 78 998.1
20260505070923 7 314 6.4 14.5 0.00 0.46 0.00 78 998.1
20260505070421 7 324 6.4 14.5 0.00 0.46 0.00 78 997.9
20260505065921 7 326 4.8 14.5 0.00 0.46 0.00 79 998.1
20260505065421 7 300 6.4 14.5 0.00 0.46 0.00 82 998.1
20260505064919 7 265 4.8 14.5 0.00 0.46 0.00 82 997.9
20260505064421 7 307 4.8 11.3 0.00 0.46 0.00 83 998.1
20260505063918 7 302 6.4 11.3 0.00 0.46 0.00 83 998.1
20260505063418 7 310 4.8 9.7 0.00 0.46 0.00 83 998.1
20260505063147 7 257 3.2 8.0 0.00 0.46 0.00 83 997.9
20260505062418 7 305 4.8 8.0 0.00 0.46 0.00 83 998.1
20260505061919 7 276 4.8 9.7 0.00 0.46 0.00 82 998.1
20260505061418 7 292 3.2 9.7 0.00 0.46 0.00 82 998.1
20260505061145 7 279 3.2 8.0 0.00 0.46 0.00 82 997.9
20260505060418 7 274 4.8 8.0 0.00 0.46 0.00 82 998.1
20260505055917 7 306 3.2 9.7 0.00 0.46 0.00 82 997.9
20260505055417 7 279 3.2 9.7 0.00 0.46 0.00 82 998.1
20260505054917 7 276 3.2 11.3 0.00 0.46 0.00 83 998.1
20260505054419 7 282 3.2 11.3 0.00 0.46 0.00 84 997.7
20260505053918 7 330 4.8 11.3 0.00 0.46 0.00 86 997.6
20260505053416 7 276 3.2 11.3 0.00 0.46 0.00 87 997.7
20260505052917 7 293 4.8 9.7 0.00 0.46 0.00 88 997.6
20260505052417 7 290 3.2 9.7 0.00 0.46 0.00 88 997.6
20260505051916 7 257 4.8 9.7 0.00 0.46 0.00 89 997.6
20260505051416 7 341 3.2 8.0 0.00 0.46 0.00 89 997.5
20260505050916 7 295 1.6 8.0 0.00 0.46 0.00 89 997.4
20260505050642 7 298 3.2 6.4 0.00 0.46 0.00 89 997.4
20260505041644 7 296 3.2 11.3 0.00 0.46 0.00 91 996.6
20260505041146 7 307 3.2 11.3 0.00 0.46 0.00 91 996.5
20260505040414 7 286 3.2 9.7 0.00 0.46 0.00 91 996.4
20260505035915 7 319 6.4 9.7 0.00 0.46 0.46 91 996.2
20260505035642 7 358 4.8 8.0 0.00 0.46 0.46 91 996.0
20260505034915 7 0 4.8 8.0 0.00 0.46 0.46 91 995.9
20260505034416 7 326 3.2 8.0 0.00 0.46 0.46 91 995.9
20260505033914 7 358 3.2 8.0 0.00 0.46 0.46 91 995.9
20260505033416 7 300 1.6 8.0 0.00 0.46 0.46 91 995.9
20260505032913 7 343 3.2 6.4 0.00 0.46 0.46 91 995.9
20260505032640 7 348 3.2 6.4 0.00 0.46 0.46 91 995.9
20260505031913 7 331 1.6 6.4 0.00 0.46 0.46 91 996.0
20260505031412 7 353 3.2 6.4 0.00 0.46 0.46 92 996.0
20260505030913 7 11 1.6 4.8 0.00 0.46 0.46 92 996.0
20260505030412 7 2 1.6 4.8 0.00 0.46 0.46 92 996.2
20260505025912 7 350 1.6 6.4 0.00 0.46 0.46 92 996.2
20260505025410 7 330 3.2 6.4 0.00 0.46 0.46 92 996.2
20260505024911 7 344 0.0 9.7 0.03 0.46 0.46 92 996.3
20260505024412 7 21 4.8 9.7 0.03 0.46 0.46 93 996.4
20260505024157 7 272 3.2 6.4 0.03 0.46 0.46 93 996.7
20260505023634 7 305 1.6 6.4 0.03 0.46 0.46 92 996.2
20260505022904 7 336 3.2 6.4 0.03 0.46 0.46 92 996.3
20260505022406 7 7 3.2 6.4 0.03 0.46 0.46 93 996.2
20260505021906 7 334 3.2 6.4 0.03 0.46 0.46 92 996.3
20260505021403 7 358 3.2 6.4 0.05 0.46 0.46 92 996.0
20260505020903 7 348 4.8 6.4 0.05 0.46 0.46 92 996.0
20260505020401 7 348 4.8 9.7 0.05 0.46 0.46 92 996.0
20260505015901 7 345 4.8 9.7 0.05 0.41 0.46 93 996.3
20260505015629 7 337 3.2 6.4 0.08 0.41 0.43 93 996.1
20260505014859 7 351 1.6 6.4 0.05 0.41 0.43 93 995.8
20260505014358 7 333 3.2 8.0 0.08 0.41 0.43 93 996.1
20260505014135 7 338 3.2 9.7 0.10 0.41 0.43 93 995.6
20260505013357 7 337 3.2 9.7 0.10 0.41 0.43 93 996.2
20260505012855 7 340 4.8 9.7 0.13 0.41 0.43 93 996.1
20260505012352 7 0 4.8 8.0 0.13 0.41 0.43 93 995.7
20260505011853 7 347 3.2 6.4 0.15 0.41 0.43 92 995.4
20260505011353 7 358 3.2 8.0 0.13 0.41 0.41 92 995.2
20260505010901 7 28 4.8 14.5 0.15 0.41 0.41 92 995.4
20260505010111 7 322 6.4 19.3 0.23 0.20 0.41 92 995.9
20260505005350 6 358 3.2 19.3 0.25 0.20 0.38 92 995.8
20260505004847 7 348 6.4 17.7 0.33 0.20 0.38 91 995.6
20260505004346 7 333 9.7 17.7 0.30 0.20 0.36 91 995.5
20260505003850 7 337 9.7 17.7 0.28 0.20 0.33 91 995.4
20260505003349 7 336 8.0 20.9 0.28 0.23 0.33 91 995.3
20260505002846 7 333 8.0 20.9 0.25 0.23 0.30 92 995.2
20260505002341 7 348 6.4 14.5 0.25 0.28 0.30 92 994.9
20260505001841 7 0 6.4 16.1 0.23 0.33 0.28 92 995.1
20260505001336 7 337 6.4 16.1 0.25 0.38 0.28 91 995.1
20260505000849 7 24 6.4 11.3 0.23 0.43 0.25 91 994.9
20260505000334 7 345 6.4 9.7 0.20 0.46 0.23 90 994.9
20260504235604 7 334 3.2 14.5 0.10 0.36 0.13 89 994.6
20260504234833 7 1 3.2 14.5 0.03 0.43 0.05 88 994.5
20260504234336 7 334 4.8 8.0 0.03 0.53 0.05 87 994.1
20260504233834 7 300 3.2 9.7 0.03 0.61 0.05 86 993.8
20260504233334 8 79 1.6 14.5 0.03 0.61 0.05 85 993.5
20260504232833 8 1 4.8 16.1 0.03 0.61 0.05 84 993.4
20260504232335 8 62 3.2 17.7 0.03 0.61 0.05 82 993.4
20260504232058 8 37 6.4 20.9 0.03 0.61 0.05 80 993.3
20260504231409 9 234 6.4 20.9 0.00 0.61 0.03 77 993.7
20260504230830 10 9 6.4 16.1 0.00 0.61 0.03 73 993.6
20260504230332 10 290 6.4 11.3 0.00 0.61 0.03 71 994.0
20260504225829 10 355 6.4 19.3 0.00 0.61 0.03 67 993.9
20260504225356 10 351 3.2 19.3 0.00 0.61 0.03 63 993.5
20260504225104 11 327 8.0 17.7 0.00 0.61 0.03 58 992.8
20260504224323 13 27 8.0 17.7 0.00 0.61 0.03 53 992.2
20260504223822 15 21 6.4 16.1 0.00 0.61 0.03 46 992.5
20260504223552 18 15 4.8 25.7 0.00 0.61 0.03 35 992.0
20260504223128 22 357 11.3 30.6 0.00 0.61 0.03 33 991.9
20260504223118 22 257 19.3 37.0 0.00 0.61 0.03 33 991.1
20260504221817 22 295 22.5 43.5 0.00 0.61 0.03 33 991.0
20260504221349 22 245 24.1 45.1 0.00 0.61 0.03 33 990.9
20260504220815 22 254 19.3 51.5 0.00 0.61 0.03 33 991.0
20260504220314 22 268 22.5 51.5 0.00 0.61 0.03 33 991.1
20260504215809 22 275 20.9 46.7 0.00 0.61 0.03 33 991.0
20260504215308 22 238 17.7 46.7 0.00 0.61 0.03 33 991.0
20260504214812 22 274 20.9 41.8 0.00 0.61 0.03 33 990.8
20260504214307 22 268 17.7 30.6 0.00 0.61 0.03 33 990.7
20260504213807 22 286 17.7 30.6 0.00 0.61 0.03 33 990.7
20260504213307 22 283 17.7 30.6 0.00 0.61 0.03 33 990.7
20260504212807 22 252 16.1 30.6 0.00 0.61 0.03 34 990.7
20260504212311 22 264 12.9 27.4 0.00 0.61 0.03 34 990.7
20260504211807 22 271 17.7 29.0 0.00 0.61 0.03 33 990.8
20260504211308 22 288 16.1 30.6 0.00 0.61 0.03 32 990.7
20260504210809 22 281 14.5 30.6 0.00 0.61 0.03 32 990.7
20260504210306 22 251 16.1 35.4 0.00 0.61 0.03 32 990.7
20260504205808 22 244 17.7 49.9 0.00 0.61 0.03 32 990.7
20260504205305 23 247 20.9 61.2 0.00 0.61 0.03 32 990.6
20260504204804 23 282 25.7 61.2 0.00 0.61 0.03 31 990.5
20260504204533 23 254 17.7 43.5 0.00 0.61 0.03 30 990.7
20260504203804 23 275 24.1 38.6 0.00 0.61 0.03 29 990.5
20260504203307 23 279 22.5 45.1 0.00 0.61 0.03 29 990.4
20260504202802 23 268 20.9 45.1 0.00 0.61 0.03 29 990.5
20260504201803 23 262 20.9 45.1 0.00 0.61 0.03 28 990.5
20260504201302 24 268 24.1 45.1 0.00 0.61 0.03 27 990.5
20260504200802 24 272 24.1 43.5 0.00 0.61 0.03 27 990.5
20260504200303 24 234 20.9 43.5 0.00 0.61 0.03 26 990.5
20260504195802 25 272 25.7 43.5 0.00 0.61 0.03 26 990.5
20260504195526 25 272 20.9 38.6 0.00 0.61 0.03 26 990.5
20260504194808 25 241 20.9 43.5 0.00 0.61 0.03 27 990.4
20260504194304 25 199 17.7 56.3 0.00 0.61 0.03 27 990.5
20260504193802 25 252 24.1 56.3 0.00 0.61 0.03 26 990.5
20260504193305 25 228 24.1 54.7 0.00 0.61 0.03 26 990.6
20260504193028 25 275 29.0 54.7 0.00 0.61 0.03 25 990.5
20260504192300 25 221 27.4 49.9 0.00 0.61 0.03 25 990.7
20260504191757 25 258 25.7 46.7 0.00 0.61 0.03 24 990.8
20260504191258 25 238 24.1 43.5 0.00 0.61 0.03 25 990.5
20260504190826 25 220 12.9 32.2 0.00 0.61 0.03 27 990.8
20260504190818 25 272 20.9 35.4 0.00 0.61 0.03 26 990.8
20260504185730 25 261 20.9 35.4 0.00 0.61 0.03 27 990.8
20260504185502 24 257 14.5 49.9 0.00 0.61 0.03 28 991.1
20260504184726 24 207 27.4 49.9 0.00 0.61 0.03 27 991.2